QPF
0.03 0.04 0.06 0.07 0.06 0.04 0.04 0.04 0.03 0.03 0.04 0.04 0.03 0.03 0.05 0.06 0.07 0.07 0.07 0.06 0.06 0.05 0.04 0.03 0.02 0.02 0.02 0.03 0.03 0.02 0.03 0.04 0.06 0.06 0.06 0.06 0.05 0.04 0.04 0.04 0.05 0.04 0.04
0.03 0.05 0.05 0.06 0.05 0.04 0.04 0.04 0.03 0.03 0.03 0.04 0.04 0.05 0.06 0.08 0.09 0.09 0.07 0.06 0.05 0.05 0.05 0.04 0.03 0.03 0.03 0.04 0.03 0.04 0.04 0.04 0.05 0.04 0.04 0.04 0.04 0.03 0.03 0.03 0.03 0.03 0.02
0.02 0.02 0.03 0.03 0.02 0.03 0.04 0.05 0.04 0.03 0.04 0.05 0.05 0.05 0.05 0.06 0.08 0.09 0.08 0.06 0.06 0.05 0.05 0.05 0.05 0.05 0.04 0.04 0.04 0.04 0.04 0.04 0.04 0.05 0.04 0.05 0.04 0.04 0.04 0.04 0.03 0.03 0.02
0.02 0.02 0.01 0.02 0.02 0.03 0.04 0.06 0.05 0.04 0.04 0.04 0.03 0.03 0.05 0.05 0.06 0.08 0.08 0.08 0.08 0.08 0.08 0.08 0.07 0.06 0.06 0.06 0.06 0.05 0.05 0.04 0.04 0.05 0.06 0.06 0.05 0.05 0.04 0.04 0.03 0.03 0.02
0.01 0.01 0.01 0.02 0.02 0.02 0.03 0.04 0.06 0.05 0.04 0.04 0.04 0.04 0.05 0.05 0.05 0.06 0.07 0.09 0.09 0.11 0.12 0.12 0.11 0.11 0.10 0.09 0.08 0.06 0.06 0.06 0.06 0.07 0.07 0.07 0.05 0.05 0.05 0.05 0.05 0.05 0.04
0.01 0.01 0.01 0.02 0.03 0.03 0.03 0.04 0.06 0.07 0.06 0.05 0.05 0.06 0.06 0.06 0.07 0.07 0.07 0.08 0.11 0.13 0.15 0.15 0.13 0.11 0.10 0.10 0.10 0.08 0.07 0.06 0.06 0.07 0.08 0.08 0.07 0.07 0.08 0.08 0.07 0.07 0.07
0.03 0.03 0.03 0.04 0.04 0.03 0.04 0.04 0.04 0.06 0.06 0.05 0.04 0.05 0.07 0.09 0.10 0.11 0.11 0.10 0.11 0.12 0.12 0.12 0.11 0.11 0.11 0.11 0.10 0.09 0.07 0.06 0.05 0.05 0.06 0.06 0.07 0.08 0.08 0.07 0.07 0.06 0.06
0.06 0.04 0.03 0.04 0.03 0.03 0.03 0.03 0.03 0.03 0.03 0.03 0.03 0.04 0.05 0.07 0.09 0.09 0.10 0.08 0.08 0.08 0.07 0.08 0.08 0.08 0.08 0.08 0.05 0.04 0.03 0.03 0.04 0.04 0.04 0.04 0.06 0.07 0.07 0.08 0.08 0.07 0.07
0.05 0.05 0.03 0.03 0.03 0.03 0.03 0.03 0.02 0.02 0.02 0.02 0.03 0.04 0.04 0.05 0.06 0.05 0.05 0.04 0.04 0.04 0.06 0.08 0.08 0.06 0.08 0.07 0.05 0.04 0.03 0.03 0.04 0.05 0.05 0.06 0.06 0.06 0.07 0.07 0.07 0.08 0.07
0.05 0.05 0.03 0.02 0.03 0.04 0.06 0.06 0.04 0.04 0.04 0.05 0.06 0.06 0.06 0.05 0.06 0.05 0.06 0.06 0.06 0.06 0.06 0.06 0.07 0.06 0.06 0.06 0.05 0.05 0.05 0.05 0.05 0.05 0.04 0.04 0.03 0.04 0.05 0.05 0.05 0.06 0.06
0.05 0.05 0.04 0.03 0.04 0.05 0.07 0.07 0.07 0.06 0.06 0.06 0.06 0.07 0.08 0.09 0.08 0.07 0.07 0.06 0.06 0.06 0.06 0.05 0.06 0.06 0.06 0.05 0.04 0.04 0.04 0.03 0.02 0.02 0.01 0.01 0.01 0.01 0.01 0.02 0.02 0.02 0.03
0.07 0.07 0.06 0.05 0.05 0.05 0.05 0.06 0.06 0.06 0.06 0.06 0.06 0.06 0.06 0.06 0.06 0.06 0.07 0.06 0.05 0.04 0.04 0.04 0.05 0.05 0.05 0.04 0.04 0.03 0.03 0.02 0.01 0.01 0.01 0.01 0.01 0.01 0.01 0.01 0.01 0.02 0.02
0.03 0.03 0.03 0.03 0.03 0.04 0.05 0.05 0.05 0.04 0.04 0.04 0.04 0.04 0.04 0.04 0.06 0.07 0.06 0.07 0.07 0.05 0.06 0.07 0.06 0.05 0.03 0.02 0.02 0.02 0.01 0.01 0.01 0.02 0.02 0.02 0.02 0.02 0.02 0.02 0.02 0.02 0.02
0.01 0.01 0.01 0.02 0.02 0.02 0.03 0.03 0.04 0.03 0.03 0.03 0.03 0.03 0.03 0.03 0.03 0.05 0.05 0.07 0.09 0.09 0.09 0.08 0.07 0.05 0.03 0.03 0.03 0.02 0.01 0.02 0.03 0.03 0.03 0.03 0.02 0.02 0.02 0.02 0.02 0.02 0.02
0.02 0.02 0.02 0.02 0.02 0.02 0.02 0.02 0.02 0.02 0.03 0.03 0.02 0.02 0.02 0.02 0.03 0.06 0.08 0.08 0.08 0.09 0.08 0.07 0.06 0.05 0.04 0.03 0.02 0.02 0.02 0.02 0.02 0.02 0.03 0.02 0.01 0.01 0.01 0.01 0.01 0.01 0.01
0.03 0.03 0.04 0.03 0.03 0.03 0.02 0.02 0.03 0.03 0.04 0.04 0.03 0.03 0.02 0.03 0.04 0.06 0.09 0.08 0.07 0.07 0.06 0.05 0.05 0.05 0.04 0.03 0.03 0.02 0.02 0.02 0.02 0.02 0.01 0.01 0.00 0.00 0.00 0.00 0.00 0.00 0.00
0.05 0.04 0.04 0.04 0.04 0.03 0.03 0.02 0.03 0.03 0.04 0.04 0.05 0.04 0.04 0.05 0.05 0.06 0.06 0.06 0.05 0.05 0.04 0.03 0.04 0.04 0.04 0.03 0.02 0.02 0.03 0.03 0.03 0.02 0.01 0.01 0.00 0.00 0.00 0.00 0.00 0.00 0.00
0.04 0.04 0.04 0.03 0.04 0.04 0.04 0.04 0.04 0.04 0.03 0.04 0.05 0.06 0.05 0.04 0.04 0.03 0.03 0.03 0.02 0.02 0.02 0.02 0.02 0.02 0.03 0.03 0.02 0.02 0.02 0.02 0.01 0.01 0.01 0.01 0.00 0.00 0.00 0.00 0.00 0.00 0.00
0.05 0.04 0.05 0.06 0.07 0.07 0.07 0.06 0.06 0.06 0.05 0.05 0.04 0.05 0.05 0.05 0.04 0.03 0.02 0.01 0.01 0.01 0.01 0.01 0.02 0.02 0.02 0.02 0.02 0.02 0.02 0.01 0.01 0.01 0.00 0.00 0.00 0.00 0.00 0.00 0.00 0.00 0.00
0.03 0.06 0.07 0.07 0.08 0.09 0.09 0.09 0.08 0.07 0.07 0.05 0.04 0.04 0.04 0.04 0.04 0.03 0.02 0.02 0.02 0.02 0.02 0.02 0.02 0.02 0.02 0.01 0.01 0.01 0.01 0.01 0.01 0.00 0.00 0.00 0.00 0.00 0.00 0.00 0.00 0.00 0.00
0.04 0.04 0.04 0.04 0.03 0.04 0.04 0.04 0.04 0.04 0.05 0.05 0.06 0.07 0.07 0.05 0.06 0.05 0.04 0.03 0.03 0.03 0.03 0.03 0.03 0.03 0.03 0.02 0.01 0.01 0.01 0.00 0.00 0.00 0.00 0.00 0.00 0.00 0.00 0.00 0.00 0.00 0.00
0.02 0.03 0.02 0.02 0.03 0.03 0.03 0.02 0.02 0.03 0.04 0.05 0.06 0.08 0.10 0.07 0.06 0.06 0.05 0.04 0.04 0.03 0.03 0.03 0.03 0.03 0.03 0.02 0.02 0.02 0.01 0.01 0.01 0.01 0.00 0.00 0.00 0.00 0.00 0.00 0.00 0.00 0.00
0.02 0.02 0.02 0.02 0.03 0.04 0.03 0.03 0.03 0.04 0.05 0.05 0.06 0.07 0.08 0.07 0.07 0.06 0.06 0.05 0.04 0.04 0.03 0.03 0.02 0.02 0.02 0.02 0.01 0.01 0.02 0.01 0.01 0.01 0.01 0.00 0.00 0.00 0.00 0.00 0.00 0.00 0.00
0.02 0.02 0.02 0.02 0.03 0.04 0.04 0.03 0.03 0.04 0.04 0.05 0.05 0.06 0.07 0.07 0.07 0.06 0.06 0.05 0.04 0.03 0.03 0.02 0.02 0.01 0.01 0.01 0.01 0.01 0.01 0.01 0.01 0.01 0.00 0.00 0.00 0.00 0.00 0.00 0.00 0.00 0.00
0.01 0.01 0.01 0.02 0.03 0.03 0.04 0.04 0.04 0.04 0.03 0.03 0.03 0.03 0.03 0.04 0.04 0.05 0.05 0.04 0.03 0.02 0.02 0.01 0.01 0.00 0.00 0.00 0.00 0.00 0.00 0.00 0.00 0.00 0.00 0.00 0.00 0.00 0.00 0.00 0.00 0.00 0.00
0.01 0.01 0.01 0.02 0.03 0.03 0.03 0.03 0.03 0.03 0.03 0.02 0.02 0.02 0.02 0.02 0.02 0.02 0.02 0.02 0.01 0.01 0.01 0.01 0.00 0.00 0.00 0.00 0.00 0.00 0.00 0.00 0.00 0.00 0.00 0.00 0.00 0.00 0.00 0.00 0.00 0.00 0.00
MSLP
1013.63 1013.92 1014.27 1014.63 1014.98 1015.29 1015.55 1015.76 1015.94 1016.11 1016.28 1016.48 1016.70 1016.94 1017.20 1017.46 1017.72 1017.96 1018.20 1018.42 1018.64 1018.86 1019.09 1019.32 1019.56 1019.81 1020.08 1020.36 1020.68 1021.03 1021.42 1021.84 1022.29 1022.76 1023.22 1023.65 1024.03 1024.36 1024.64 1024.88 1025.08 1025.29 1025.52
1013.65 1013.88 1014.15 1014.44 1014.73 1014.99 1015.22 1015.42 1015.60 1015.77 1015.95 1016.14 1016.35 1016.58 1016.82 1017.06 1017.30 1017.54 1017.78 1018.02 1018.25 1018.49 1018.74 1018.98 1019.23 1019.48 1019.74 1020.03 1020.35 1020.72 1021.15 1021.63 1022.16 1022.71 1023.28 1023.82 1024.32 1024.76 1025.13 1025.45 1025.73 1025.98 1026.23
1013.72 1013.91 1014.12 1014.34 1014.56 1014.76 1014.94 1015.11 1015.27 1015.44 1015.61 1015.80 1015.99 1016.20 1016.42 1016.64 1016.87 1017.10 1017.34 1017.59 1017.85 1018.11 1018.38 1018.65 1018.91 1019.17 1019.44 1019.73 1020.06 1020.44 1020.89 1021.40 1021.97 1022.58 1023.22 1023.85 1024.45 1024.99 1025.46 1025.87 1026.23 1026.55 1026.84
1013.79 1013.97 1014.14 1014.30 1014.45 1014.60 1014.73 1014.86 1014.99 1015.14 1015.30 1015.47 1015.65 1015.84 1016.04 1016.23 1016.44 1016.66 1016.90 1017.16 1017.43 1017.73 1018.03 1018.33 1018.63 1018.92 1019.21 1019.51 1019.84 1020.22 1020.67 1021.18 1021.77 1022.41 1023.08 1023.77 1024.43 1025.05 1025.62 1026.12 1026.55 1026.94 1027.30
1013.81 1013.99 1014.15 1014.28 1014.39 1014.49 1014.58 1014.68 1014.79 1014.91 1015.06 1015.21 1015.38 1015.54 1015.71 1015.88 1016.06 1016.26 1016.49 1016.76 1017.05 1017.38 1017.73 1018.08 1018.42 1018.75 1019.08 1019.40 1019.73 1020.11 1020.54 1021.04 1021.60 1022.24 1022.92 1023.62 1024.32 1024.99 1025.62 1026.19 1026.71 1027.17 1027.58
1013.74 1013.96 1014.13 1014.26 1014.35 1014.42 1014.49 1014.57 1014.67 1014.78 1014.92 1015.06 1015.21 1015.35 1015.48 1015.62 1015.77 1015.95 1016.17 1016.44 1016.75 1017.11 1017.51 1017.91 1018.31 1018.70 1019.07 1019.42 1019.77 1020.14 1020.55 1021.01 1021.55 1022.14 1022.79 1023.48 1024.19 1024.88 1025.54 1026.16 1026.73 1027.25 1027.72
1013.60 1013.86 1014.06 1014.21 1014.31 1014.38 1014.46 1014.54 1014.64 1014.76 1014.90 1015.04 1015.17 1015.29 1015.40 1015.50 1015.62 1015.77 1015.98 1016.24 1016.57 1016.97 1017.41 1017.87 1018.33 1018.78 1019.21 1019.60 1019.97 1020.34 1020.73 1021.16 1021.65 1022.19 1022.79 1023.43 1024.11 1024.79 1025.45 1026.09 1026.69 1027.24 1027.75
1013.41 1013.72 1013.95 1014.13 1014.26 1014.36 1014.46 1014.58 1014.70 1014.85 1015.00 1015.15 1015.28 1015.38 1015.47 1015.55 1015.64 1015.77 1015.95 1016.21 1016.56 1016.98 1017.46 1017.98 1018.51 1019.02 1019.50 1019.94 1020.34 1020.72 1021.10 1021.50 1021.93 1022.41 1022.95 1023.53 1024.15 1024.79 1025.43 1026.05 1026.65 1027.21 1027.73
1013.23 1013.57 1013.83 1014.04 1014.21 1014.36 1014.50 1014.66 1014.83 1015.01 1015.20 1015.37 1015.51 1015.61 1015.69 1015.76 1015.83 1015.94 1016.11 1016.37 1016.72 1017.16 1017.68 1018.24 1018.83 1019.40 1019.93 1020.42 1020.85 1021.25 1021.62 1021.99 1022.38 1022.81 1023.28 1023.80 1024.35 1024.93 1025.52 1026.10 1026.67 1027.21 1027.71
1013.13 1013.46 1013.74 1013.97 1014.17 1014.36 1014.55 1014.76 1014.98 1015.22 1015.45 1015.65 1015.82 1015.94 1016.03 1016.09 1016.16 1016.26 1016.43 1016.68 1017.04 1017.50 1018.04 1018.64 1019.26 1019.87 1020.45 1020.98 1021.44 1021.86 1022.23 1022.59 1022.95 1023.33 1023.75 1024.20 1024.69 1025.20 1025.73 1026.26 1026.78 1027.27 1027.74
1013.15 1013.44 1013.70 1013.93 1014.14 1014.36 1014.60 1014.86 1015.14 1015.42 1015.70 1015.95 1016.16 1016.31 1016.42 1016.50 1016.58 1016.69 1016.86 1017.13 1017.49 1017.95 1018.50 1019.12 1019.76 1020.40 1021.00 1021.55 1022.04 1022.47 1022.85 1023.21 1023.55 1023.91 1024.29 1024.69 1025.13 1025.58 1026.05 1026.52 1026.97 1027.41 1027.83
1013.30 1013.52 1013.72 1013.92 1014.13 1014.36 1014.63 1014.93 1015.25 1015.59 1015.92 1016.22 1016.48 1016.67 1016.82 1016.93 1017.04 1017.17 1017.36 1017.64 1018.00 1018.47 1019.02 1019.63 1020.27 1020.91 1021.52 1022.08 1022.57 1023.02 1023.41 1023.77 1024.12 1024.46 1024.82 1025.20 1025.60 1026.01 1026.42 1026.84 1027.23 1027.61 1027.97
1013.56 1013.68 1013.81 1013.95 1014.13 1014.36 1014.63 1014.96 1015.32 1015.70 1016.08 1016.43 1016.73 1016.98 1017.17 1017.33 1017.48 1017.65 1017.87 1018.16 1018.53 1018.99 1019.52 1020.11 1020.73 1021.35 1021.94 1022.49 1022.99 1023.44 1023.84 1024.21 1024.57 1024.93 1025.29 1025.66 1026.04 1026.43 1026.81 1027.17 1027.52 1027.84 1028.14
1013.89 1013.90 1013.94 1014.01 1014.15 1014.35 1014.62 1014.95 1015.34 1015.75 1016.16 1016.56 1016.91 1017.21 1017.46 1017.67 1017.88 1018.09 1018.34 1018.65 1019.02 1019.47 1019.98 1020.54 1021.12 1021.70 1022.26 1022.78 1023.27 1023.71 1024.12 1024.50 1024.88 1025.26 1025.64 1026.02 1026.41 1026.79 1027.15 1027.49 1027.80 1028.08 1028.32
1014.22 1014.13 1014.08 1014.09 1014.17 1014.34 1014.59 1014.92 1015.32 1015.75 1016.19 1016.62 1017.01 1017.36 1017.67 1017.94 1018.20 1018.46 1018.75 1019.08 1019.46 1019.90 1020.38 1020.90 1021.43 1021.96 1022.47 1022.96 1023.41 1023.84 1024.25 1024.65 1025.05 1025.45 1025.86 1026.27 1026.67 1027.06 1027.42 1027.75 1028.03 1028.28 1028.48
1014.50 1014.33 1014.21 1014.16 1014.20 1014.34 1014.57 1014.90 1015.29 1015.73 1016.19 1016.64 1017.07 1017.46 1017.82 1018.15 1018.46 1018.77 1019.10 1019.45 1019.84 1020.27 1020.72 1021.20 1021.67 1022.15 1022.61 1023.05 1023.47 1023.88 1024.29 1024.69 1025.11 1025.54 1025.97 1026.41 1026.83 1027.24 1027.60 1027.93 1028.20 1028.42 1028.59
1014.70 1014.47 1014.31 1014.22 1014.24 1014.36 1014.58 1014.90 1015.29 1015.73 1016.20 1016.67 1017.12 1017.55 1017.95 1018.33 1018.69 1019.05 1019.41 1019.79 1020.18 1020.60 1021.02 1021.46 1021.89 1022.30 1022.71 1023.11 1023.49 1023.88 1024.27 1024.68 1025.11 1025.55 1026.01 1026.46 1026.91 1027.32 1027.70 1028.02 1028.29 1028.49 1028.64
1014.80 1014.56 1014.38 1014.29 1014.30 1014.42 1014.65 1014.96 1015.34 1015.78 1016.25 1016.73 1017.20 1017.65 1018.09 1018.51 1018.91 1019.30 1019.69 1020.09 1020.49 1020.90 1021.30 1021.70 1022.09 1022.46 1022.82 1023.17 1023.52 1023.88 1024.25 1024.65 1025.08 1025.53 1025.99 1026.45 1026.91 1027.33 1027.70 1028.03 1028.29 1028.48 1028.62
1014.83 1014.61 1014.45 1014.38 1014.41 1014.54 1014.77 1015.08 1015.46 1015.90 1016.36 1016.84 1017.32 1017.79 1018.25 1018.69 1019.12 1019.55 1019.97 1020.38 1020.78 1021.18 1021.56 1021.93 1022.28 1022.61 1022.93 1023.24 1023.56 1023.89 1024.24 1024.63 1025.04 1025.48 1025.93 1026.39 1026.84 1027.25 1027.62 1027.94 1028.20 1028.39 1028.52
1014.84 1014.66 1014.54 1014.51 1014.57 1014.72 1014.96 1015.27 1015.65 1016.08 1016.53 1017.01 1017.49 1017.96 1018.43 1018.89 1019.34 1019.78 1020.21 1020.63 1021.03 1021.42 1021.78 1022.12 1022.44 1022.74 1023.03 1023.31 1023.60 1023.90 1024.23 1024.59 1024.98 1025.40 1025.83 1026.27 1026.69 1027.09 1027.45 1027.76 1028.01 1028.20 1028.34
1014.88 1014.75 1014.69 1014.70 1014.79 1014.96 1015.21 1015.52 1015.89 1016.30 1016.74 1017.20 1017.67 1018.14 1018.61 1019.07 1019.53 1019.97 1020.40 1020.82 1021.21 1021.58 1021.93 1022.24 1022.54 1022.81 1023.07 1023.32 1023.58 1023.86 1024.17 1024.50 1024.86 1025.25 1025.66 1026.07 1026.47 1026.85 1027.19 1027.49 1027.73 1027.92 1028.06
1014.99 1014.92 1014.91 1014.96 1015.07 1015.26 1015.50 1015.80 1016.15 1016.54 1016.96 1017.39 1017.84 1018.30 1018.76 1019.21 1019.65 1020.09 1020.51 1020.91 1021.28 1021.63 1021.95 1022.24 1022.51 1022.76 1022.99 1023.23 1023.47 1023.73 1024.01 1024.32 1024.66 1025.02 1025.40 1025.78 1026.15 1026.51 1026.83 1027.12 1027.36 1027.56 1027.71
1015.21 1015.19 1015.21 1015.28 1015.41 1015.59 1015.82 1016.10 1016.41 1016.77 1017.14 1017.55 1017.96 1018.39 1018.82 1019.25 1019.68 1020.09 1020.48 1020.86 1021.20 1021.52 1021.81 1022.07 1022.31 1022.53 1022.75 1022.97 1023.20 1023.45 1023.72 1024.02 1024.34 1024.68 1025.04 1025.40 1025.75 1026.08 1026.40 1026.68 1026.92 1027.12 1027.29
1015.50 1015.52 1015.57 1015.65 1015.77 1015.93 1016.13 1016.36 1016.63 1016.93 1017.27 1017.62 1018.00 1018.39 1018.79 1019.18 1019.57 1019.95 1020.31 1020.64 1020.95 1021.23 1021.48 1021.71 1021.92 1022.12 1022.33 1022.53 1022.76 1023.01 1023.28 1023.57 1023.89 1024.23 1024.58 1024.93 1025.27 1025.60 1025.91 1026.18 1026.43 1026.64 1026.82
1015.85 1015.89 1015.95 1016.02 1016.12 1016.23 1016.38 1016.56 1016.77 1017.02 1017.29 1017.60 1017.92 1018.27 1018.62 1018.98 1019.33 1019.66 1019.98 1020.27 1020.53 1020.76 1020.97 1021.17 1021.36 1021.54 1021.73 1021.94 1022.17 1022.43 1022.71 1023.02 1023.36 1023.70 1024.06 1024.41 1024.75 1025.08 1025.39 1025.67 1025.92 1026.14 1026.32
1016.18 1016.22 1016.27 1016.32 1016.38 1016.45 1016.54 1016.65 1016.80 1016.98 1017.20 1017.45 1017.72 1018.02 1018.33 1018.64 1018.94 1019.23 1019.50 1019.74 1019.96 1020.15 1020.32 1020.49 1020.65 1020.82 1021.01 1021.23 1021.48 1021.75 1022.06 1022.40 1022.76 1023.12 1023.50 1023.87 1024.22 1024.56 1024.87 1025.15 1025.40 1025.61 1025.80
Thickness
5747 5745 5742 5741 5740 5739 5737 5736 5735 5735 5734 5733 5732 5730 5729 5728 5727 5725 5724 5722 5721 5719 5718 5717 5715 5714 5713 5712 5710 5708 5706 5703 5694 5689 5686 5684 5682 5680 5677 5675 5672 5669 5666
5747 5744 5742 5740 5738 5737 5736 5735 5734 5733 5733 5731 5730 5728 5727 5725 5724 5723 5721 5719 5717 5715 5714 5713 5711 5710 5708 5706 5705 5703 5701 5698 5693 5685 5679 5676 5673 5671 5668 5665 5662 5659 5655
5746 5744 5741 5738 5737 5735 5734 5733 5732 5731 5730 5728 5727 5725 5724 5723 5721 5720 5718 5716 5714 5712 5711 5709 5707 5705 5702 5700 5699 5696 5694 5692 5689 5682 5674 5669 5665 5662 5659 5655 5652 5648 5645
5745 5742 5739 5737 5735 5733 5731 5730 5729 5728 5726 5725 5724 5722 5721 5719 5718 5716 5715 5712 5710 5708 5706 5704 5702 5700 5698 5695 5692 5689 5687 5683 5679 5674 5668 5661 5657 5653 5650 5646 5641 5637 5633
5742 5739 5737 5735 5733 5730 5728 5727 5725 5724 5723 5721 5720 5718 5717 5715 5714 5712 5710 5708 5705 5702 5700 5698 5696 5694 5692 5690 5687 5683 5679 5675 5670 5665 5660 5654 5649 5644 5641 5637 5632 5626 5621
5739 5736 5734 5731 5729 5726 5725 5723 5721 5719 5718 5716 5715 5713 5711 5710 5709 5707 5705 5702 5699 5696 5693 5690 5688 5687 5684 5682 5679 5676 5673 5668 5663 5658 5653 5648 5642 5638 5633 5629 5624 5619 5612
5736 5733 5730 5728 5725 5723 5721 5718 5716 5713 5712 5711 5709 5707 5705 5703 5702 5700 5698 5695 5692 5689 5686 5683 5680 5677 5675 5672 5669 5665 5662 5659 5656 5652 5647 5642 5636 5631 5626 5620 5615 5610 5604
5733 5730 5727 5724 5721 5718 5715 5713 5710 5708 5707 5705 5702 5700 5698 5696 5694 5692 5690 5686 5683 5680 5677 5674 5671 5668 5665 5662 5658 5653 5648 5645 5644 5641 5637 5632 5628 5623 5618 5613 5606 5598 5591
5727 5725 5722 5720 5717 5713 5709 5707 5705 5702 5700 5697 5695 5693 5690 5688 5686 5684 5682 5678 5674 5670 5667 5665 5662 5658 5655 5652 5648 5642 5636 5632 5630 5627 5624 5621 5617 5613 5608 5603 5596 5591 5583
5723 5719 5716 5714 5712 5708 5704 5701 5698 5696 5693 5690 5687 5685 5682 5679 5677 5676 5674 5670 5665 5661 5657 5654 5651 5648 5644 5641 5638 5633 5627 5621 5618 5614 5611 5608 5604 5600 5596 5592 5588 5582 5575
5718 5714 5711 5708 5706 5702 5698 5695 5692 5689 5685 5682 5679 5676 5673 5671 5668 5667 5665 5662 5658 5653 5648 5644 5640 5637 5634 5630 5627 5623 5618 5612 5607 5604 5599 5595 5591 5587 5583 5578 5575 5571 5566
5712 5709 5704 5700 5699 5696 5692 5688 5685 5681 5677 5674 5671 5667 5664 5661 5659 5657 5655 5652 5649 5645 5639 5634 5630 5626 5623 5619 5615 5611 5606 5602 5597 5593 5588 5583 5579 5575 5570 5566 5562 5558 5554
5704 5699 5695 5692 5690 5688 5685 5681 5677 5673 5670 5666 5663 5659 5654 5651 5648 5646 5644 5641 5637 5634 5629 5625 5620 5616 5612 5608 5603 5599 5595 5591 5587 5583 5577 5571 5567 5562 5558 5554 5550 5546 5542
5695 5691 5687 5684 5681 5679 5676 5673 5670 5666 5663 5659 5656 5652 5647 5642 5639 5636 5633 5629 5625 5621 5617 5612 5608 5604 5601 5597 5591 5587 5584 5580 5577 5572 5566 5560 5556 5552 5547 5543 5539 5535 5531
5685 5681 5678 5675 5672 5669 5666 5663 5661 5658 5656 5653 5649 5645 5641 5636 5631 5628 5625 5620 5616 5612 5606 5601 5597 5593 5589 5585 5580 5576 5572 5569 5565 5560 5555 5551 5546 5541 5536 5532 5528 5524 5521
5675 5672 5669 5666 5662 5660 5656 5651 5648 5647 5644 5643 5640 5636 5631 5627 5622 5618 5614 5610 5605 5601 5598 5593 5588 5584 5580 5576 5572 5567 5563 5559 5554 5550 5546 5541 5536 5531 5526 5521 5517 5514 5510
5667 5664 5660 5657 5653 5651 5647 5644 5639 5634 5632 5629 5626 5624 5621 5616 5612 5608 5603 5598 5594 5591 5588 5584 5580 5575 5571 5567 5563 5560 5554 5549 5545 5541 5536 5531 5526 5521 5516 5512 5508 5504 5500
5656 5654 5651 5647 5644 5641 5638 5635 5632 5628 5623 5617 5612 5610 5607 5604 5600 5596 5592 5587 5582 5580 5578 5575 5571 5567 5563 5559 5555 5550 5545 5540 5535 5531 5526 5521 5517 5512 5508 5504 5499 5495 5491
5645 5643 5640 5637 5633 5630 5627 5623 5620 5616 5612 5606 5601 5596 5594 5590 5587 5583 5581 5579 5576 5572 5569 5566 5563 5559 5555 5550 5546 5542 5537 5532 5527 5522 5517 5512 5508 5503 5500 5496 5491 5486 5482
5633 5631 5629 5625 5622 5619 5616 5612 5609 5605 5601 5595 5591 5587 5583 5580 5577 5573 5571 5570 5567 5564 5561 5558 5554 5550 5546 5541 5537 5532 5528 5522 5517 5513 5509 5504 5499 5495 5491 5487 5484 5480 5476
5621 5619 5617 5614 5610 5607 5604 5601 5597 5594 5590 5586 5582 5578 5575 5573 5570 5567 5563 5561 5559 5556 5553 5550 5546 5542 5537 5533 5528 5524 5519 5514 5509 5505 5501 5496 5492 5488 5483 5480 5476 5472 5468
5609 5607 5604 5601 5598 5595 5592 5589 5586 5583 5579 5576 5571 5566 5564 5563 5561 5558 5555 5553 5551 5548 5545 5542 5538 5534 5530 5526 5521 5516 5511 5506 5501 5497 5493 5488 5484 5480 5476 5472 5469 5465 5461
5597 5595 5592 5589 5586 5583 5580 5577 5575 5572 5569 5566 5562 5559 5556 5553 5552 5550 5547 5545 5542 5540 5537 5533 5530 5526 5522 5517 5513 5509 5504 5500 5496 5491 5486 5482 5478 5474 5470 5466 5462 5459 5456
5586 5584 5581 5578 5575 5573 5570 5567 5565 5562 5560 5557 5554 5552 5549 5546 5544 5542 5539 5537 5534 5531 5528 5525 5522 5518 5514 5510 5505 5501 5498 5494 5489 5485 5480 5476 5472 5468 5464 5460 5457 5454 5451
5574 5573 5571 5568 5566 5563 5561 5558 5556 5554 5552 5549 5547 5545 5542 5540 5537 5535 5532 5530 5527 5524 5521 5517 5514 5510 5507 5503 5499 5495 5492 5488 5483 5479 5474 5470 5466 5462 5459 5455 5452 5449 5446
5565 5563 5561 5559 5557 5555 5553 5551 5549 5547 5545 5543 5540 5538 5536 5534 5531 5529 5526 5523 5520 5517 5514 5511 5507 5504 5501 5497 5493 5490 5486 5482 5478 5473 5469 5465 5461 5457 5454 5450 5447 5444 5442